Location: Unspecified
(0.0000°N, 0.0000°E)
Time: 14:43:32
(UTC+00:00)

ISS - Pass Details

Date: 16 May 2022
Orbit: 414 x 421 km, 51.6° (Epoch: 20 May)

Event Time Altitude Azimuth Distance (km) Brightness Sun altitude
Rises 05:29:04 0° 319° (NW) 2,335 -0.2 -6.5°
Reaches altitude 10° 05:31:10 10° 315° (NW) 1,477 -1.2 -6.0°
Maximum altitude 05:34:26 59° 235° (SW) 483 -3.7 -5.2°
Drops below altitude 10° 05:37:44 10° 154° (SSE) 1,487 -0.9 -4.4°
Sets 05:39:51 0° 150° (SSE) 2,354 0.2 -3.9°
